Вернуться в каталог

STARLINK-32562

АктивенСвязьVLEO
NORAD 62168·PAYLOAD·🇺🇸 United States

Запущен Nov 30, 2024 с Vandenberg Space Force Base

Loading…

Ближайшие Пролёты (ближайшие 24 часа)

TLE

СвежийSource: CelesTrak SupGP

Эпоха: Sep 15, 2026, 03:40 UTC

1 62168C 24225F   26258.15326389 -.00004316  00000+0 -36177-3 0  2588
2 62168  70.0014  46.7502 0002762 262.3482 136.1880 14.98324858    15

Отслеживайте STARLINK-32562 в реальном времени с AllMySat

Download on the App Store